Weather History for KHFF - January, 2013

Change the Weather History Date:

Tuesday, January 22, 2013

  Actual Average Record
Temperature  
Mean Temperature 34 °F -  
Max Temperature 43 °F 51 °F 71 °F (1999)
Min Temperature 25 °F 28 °F 17 °F (2009)
Degree Days  
Heating Degree Days 31    
Moisture  
Dew Point 13 °F    
Average Humidity 44    
Maximum Humidity 76    
Minimum Humidity 17    
Precipitation  
Precipitation 0.00 in - - ()
Sea Level Pressure  
Sea Level Pressure 30.19 in    
Wind  
Wind Speed 7 mph (NNW)    
Max Wind Speed 15 mph    
Max Gust Speed 21 mph    
Visibility 10 miles    
Events      
Averages and records for this station are not official NWS values.
T = Trace of Precipitation, MM = Missing Value Source: NWS Daily Summary

Daily Weather History Graph

Daily Weather History Graph

Search for Another Location

Airport or City:

Trip Planner

Search our weather history database for the weather conditions in past years. The results will help you decide how hot, cold, wet, or windy it might be!

Date:

Astronomy

Jan. 22, 2013 Rise Set
Actual Time 7:22 AM EST 5:36 PM EST
Civil Twilight 6:55 AM EST 6:03 PM EST
Nautical Twilight 6:25 AM EST 6:34 PM EST
Astronomical Twilight 5:54 AM EST 7:04 PM EST
Moon 2:00 PM EST (1/22) 3:41 AM EST (1/22)
Length of Visible Light 11h 08m
Length of Day
10h 13m
Waxing Gibbous, 82% of the Moon is Illuminated
Jan 22
Waxing Gibbous
Jan 26
Full
Feb 3
Last Quarter
Feb 10
New
Feb 17
First Quarter

Hourly Weather History & Observations

Time (EST) Temp. Windchill Dew Point Humidity Pressure Visibility Wind Dir Wind Speed Gust Speed Precip Events Conditions
12:55 AM 43.2 °F 38.4 °F 18.9 °F 38% 30.01 in 10.0 mi West 8.1 mph - N/A   Clear
1:55 AM 42.3 °F 37.3 °F 17.6 °F 37% 30.02 in 10.0 mi West 8.1 mph - N/A   Clear
2:55 AM 40.1 °F 36.1 °F 19.0 °F 43% 30.04 in 10.0 mi WNW 5.8 mph - N/A   Clear
3:55 AM 37.0 °F 33.3 °F 19.9 °F 50% 30.05 in 10.0 mi WNW 4.6 mph - N/A   Clear
4:55 AM 34.3 °F 31.4 °F 21.6 °F 60% 30.07 in 10.0 mi North 3.5 mph - N/A   Clear
5:55 AM 34.2 °F 29.0 °F 15.4 °F 46% 30.11 in 10.0 mi NNW 5.8 mph - N/A   Clear
6:55 AM 31.8 °F 27.3 °F 15.1 °F 50% 30.16 in 10.0 mi NNW 4.6 mph - N/A   Clear
7:55 AM 29.5 °F - 20.8 °F 70% 30.18 in 10.0 mi Variable 1.2 mph - N/A   Clear
8:55 AM 34.7 °F 27.5 °F 10.6 °F 37% 30.20 in 10.0 mi North 9.2 mph - N/A   Clear
9:55 AM 36.7 °F 32.0 °F 10.2 °F 34% 30.24 in 10.0 mi Variable 5.8 mph - N/A   Clear
10:55 AM 38.3 °F 31.4 °F 7.3 °F 28% 30.25 in 10.0 mi NNW 10.4 mph - N/A   Clear
11:55 AM 39.7 °F 33.2 °F 8.4 °F 28% 30.23 in 10.0 mi NNW 10.4 mph 13.8 mph N/A   Clear
12:55 PM 41.0 °F 36.4 °F 4.3 °F 22% 30.20 in 10.0 mi North 6.9 mph 20.7 mph N/A   Clear
1:55 PM 42.6 °F 35.2 °F 1.4 °F 18% 30.19 in 10.0 mi WNW 15.0 mph 18.4 mph N/A   Partly Cloudy
2:55 PM 43.3 °F 39.2 °F 2.7 °F 19% 30.19 in 10.0 mi NNW 6.9 mph 17.3 mph N/A   Clear
3:55 PM 43.2 °F 36.2 °F 0.1 °F 17% 30.22 in 10.0 mi WNW 13.8 mph - N/A   Clear
4:55 PM 41.9 °F 36.3 °F 3.7 °F 21% 30.22 in 10.0 mi NW 9.2 mph - N/A   Clear
5:55 PM 38.5 °F - 6.8 °F 27% 30.22 in 10.0 mi NNW 1.2 mph - N/A   Clear
6:55 PM 32.9 °F - 16.0 °F 50% 30.25 in 10.0 mi Variable 1.2 mph - N/A   Clear
7:55 PM 29.1 °F - 17.2 °F 61% 30.25 in 10.0 mi North - - N/A   Clear
8:55 PM 27.0 °F - 18.9 °F 72% 30.27 in 10.0 mi Variable 1.2 mph - N/A   Clear
9:55 PM 26.4 °F 20.9 °F 19.8 °F 76% 30.27 in 10.0 mi NNW 4.6 mph - N/A   Partly Cloudy
10:55 PM 25.3 °F 19.7 °F 18.5 °F 75% 30.30 in 10.0 mi NNW 4.6 mph - N/A   Clear
11:55 PM 25.3 °F - 16.2 °F 68% 30.30 in 10.0 mi NNE 2.3 mph - N/A   Clear